Location: Nitra
(0.0000°N, 18.0833°E)
Time: 09:35:13
(UTC+02:00)

A-11 Canister half - Pass Details

Date: 01 April 2023
Orbit: 1513 x 1686 km, 47.2° (Epoch: 02 June)

Event Time Altitude Azimuth Distance (km) Brightness Sun altitude
Exits shadow 05:21:14 - 319° (NW) 4,181 10.9 -22.6°
Reaches altitude 10° 05:22:02 10° 319° (NW) 3,932 10.8 -22.4°
Maximum altitude 05:32:10 85° 231° (SW) 1,659 9.0 -19.8°
Drops below altitude 10° 05:42:02 10° 143° (SE) 3,831 11.5 -17.4°
Sets 05:45:05 0° 142° (SE) 4,795 12.1 -16.6°
